Regional Weather Roundup
Issued by NWS

Home | Current Version | Previous Version | Graphics & Text | Print | Product List | Glossary On
Versions: 1 2 3 4 5 6 7 8 9 10 11 12 13 14 15 16 17 18 19 20 21 22 23 24 25 26 27 28 29 30 31 32 33 34 35 36 37 38 39 40 41 42 43 44 45 46 47 48 49 50
000
ASUS43 KTOP 271459
RWRKS

WEATHER ROUNDUP FOR KANSAS
NATIONAL WEATHER SERVICE GOODLAND KS
1000 AM CDT TUE SEP 27 2016

NOTE:  "FAIR" INDICATES FEW OR NO CLOUDS BELOW 12,000 FEET WITH NO
SIGNIFICANT WEATHER AND/OR OBSTRUCTIONS TO VISIBILITY.

KSZ001>006-013>018-027>032-041>047-271600-
NORTHWEST KANSAS

CITY           SKY/WX    TMP DP  RH WIND       PRES   REMARKS
GOODLAND       SUNNY     67  43  41 W5        30.18S
HAYS           SUNNY     66  43  42 NW6       30.11S
HILL CITY      SUNNY     65  49  56 NW7       30.13R
RUSSELL        SUNNY     65  47  52 NW7       30.09S
$$

KSZ061>065-074>080-084>089-271600-
SOUTHWEST KANSAS

CITY           SKY/WX    TMP DP  RH WIND       PRES   REMARKS
DODGE CITY     SUNNY     67  39  35 W7        30.14F
ELKHART          N/A     63  37  38 NW7         N/A
GARDEN CITY    SUNNY     63  40  42 W5        30.15S
GREAT BEND     SUNNY     64  45  48 NW7       30.11S
LIBERAL        SUNNY     66  39  37 W7        30.18S
$$

KSZ066>073-081>083-090>101-271600-
SOUTHEAST KANSAS

CITY           SKY/WX    TMP DP  RH WIND       PRES   REMARKS
CHANUTE        SUNNY     66  50  56 SW10      30.10R
COFFEYVILLE    SUNNY     65  50  58 SW7       30.12S
HUTCHINSON     SUNNY     63  46  54 NW6       30.10R
MEDICINE LODGE   N/A     60  47  61 CALM      30.11F
NEWTON         SUNNY    N/A N/A N/A W10       30.10S
PARSONS        SUNNY     64  52  64 SW6       30.12S
WICHITA INTL   SUNNY     66  49  54 SW9       30.09S
WICHITA JABRA  SUNNY     67  47  48 SW14      30.09S
WICHITA MCCONL SUNNY     65  48  52 W10       30.09F
WINFIELD       SUNNY     64  53  67 SW9       30.12F
$$

KSZ007>012-019>026-033>040-048>060-102>105-271600-
NORTHEAST KANSAS

CITY           SKY/WX    TMP DP  RH WIND       PRES   REMARKS
CONCORDIA      SUNNY     63  50  62 NW6       30.07R
EMPORIA        SUNNY     68  47  46 W9        30.08R
LAWRENCE       SUNNY     63  53  70 W5        30.06S
MANHATTAN      SUNNY     62  51  67 SW6       30.06S
OLATHE IND     SUNNY     64  49  57 SW10      30.07S
OLATHE EXE     SUNNY     62  48  60 W8        30.07R
SALINA         SUNNY     64  49  57 CALM      30.08S
TOPEKA BILLARD SUNNY     63  50  62 W6        30.05S
TOPEKA FORBES  SUNNY     66  51  58 W6        30.05S
$$




USA.gov is the U.S. government's official web portal to all federal, state and local government web resources and services.